Home   Weather   Richmond   Past weeks
Flag for USA

Past Weather in Richmond, Virginia, USA — Yesterday and Last 2 Weeks

Now
48 °F

Clear.


Feels Like: 42 °F
Forecast: 64 / 47 °F
Wind: 16 mph from West

Location: Richmond International Airport

Current Time: Oct 17, 2019 at 6:41:29 am

Latest Report: Oct 17, 2019 at 5:54 am


Visibility: 10 mi

Pressure: 29.68 "Hg

Humidity: 68%

Dew Point: 38 °F

Location of RichmondLocation

Past Weather in Richmond — Graph

°F

Richmond Temperature Yesterday

Maximum temperature yesterday: 64 °F (at 1:09 pm)
Minimum temperature yesterday: 53 °F (at 11:54 pm)
Average temperature yesterday: 59 °F

High & Low Weather Summary for the Past Weeks

 TemperatureHumidityPressure
High97 °F (Oct 2, 1:54 pm)100% (Oct 4, 5:30 am)30.39 "Hg (Oct 4, 5:30 am)
Low48 °F (Oct 12, 3:54 am)20% (Oct 11, 2:54 pm)29.54 "Hg (Oct 16, 4:54 pm)
Average66 °F73%30.07 "Hg
* Reported Oct 2 4:54 am — Oct 17 4:54 am, Richmond. Weather by CustomWeather, © 2019

Note: Actual official high and low records may vary slightly from our data, if they occured in-between our weather recording intervals... More about our weather records

Advertising

Richmond Weather History for the Previous 24 Hours

Scroll right to see more
 ConditionsComfort  
Time TempWeatherWind HumidityBarometerVisibility
4:54 am
Thu, Oct 17
50 °FClear.12 mph63%29.67 "Hg10 mi
3:54 am49 °FClear.13 mph66%29.69 "Hg10 mi
2:54 am50 °FClear.14 mph61%29.68 "Hg10 mi
1:54 am50 °FClear.15 mph63%29.68 "Hg10 mi
12:54 am51 °FClear.10 mph63%29.68 "Hg10 mi
11:54 pm
Wed, Oct 16
53 °FClear.14 mph55%29.69 "Hg10 mi
10:54 pm54 °FClear.14 mph59%29.67 "Hg10 mi
9:54 pm55 °FClear.13 mph62%29.65 "Hg10 mi
8:54 pm55 °FClear.13 mph62%29.62 "Hg10 mi
7:54 pm58 °FPassing clouds.23 mph60%29.61 "Hg10 mi
6:54 pm59 °FPassing clouds.9 mph87%29.57 "Hg10 mi
5:54 pm61 °FScattered clouds.13 mph83%29.55 "Hg10 mi
4:54 pm61 °FScattered clouds.12 mph83%29.54 "Hg10 mi
3:54 pm59 °FPartly sunny.6 mph93%29.55 "Hg10 mi
2:54 pm56 °FLight rain. Cloudy.8 mph97%29.57 "Hg7 mi
2:25 pm56 °FLight rain. Fog.7 mph93%29.55 "Hg6 mi
1:54 pm56 °FLight rain. Fog.14 mph93%29.59 "Hg2 mi
1:30 pm58 °FRain. Fog.20 mph93%29.60 "Hg1 mi
1:21 pm60 °FHeavy rain. Fog.24 mph100%29.59 "Hg1 mi
1:09 pm64 °FLight rain. Fog.12 mph97%29.55 "Hg2 mi
12:36 pm63 °FLight rain. Fog.13 mph97%29.59 "Hg5 mi
12:21 pm63 °FRain. Fog.13 mph97%29.61 "Hg1 mi
11:54 am63 °FLight rain. Fog.14 mph93%29.65 "Hg4 mi
11:32 am63 °FLight rain. Fog.16 mph93%29.67 "Hg1 mi
10:54 am62 °FLight rain. Fog.12 mph96%29.71 "Hg4 mi
10:04 am60 °FLight rain. Fog.5 mph96%29.75 "Hg2 mi
9:54 am60 °FLight rain. Fog.5 mph93%29.77 "Hg2 mi
9:41 am59 °FLight rain. Fog.3 mph96%29.77 "Hg3 mi
9:28 am59 °FRain. Fog.3 mph96%29.78 "Hg2 mi
8:54 am58 °FLight rain. Fog.3 mph97%29.82 "Hg4 mi
8:35 am59 °FLight rain. Fog.3 mph100%29.84 "Hg3 mi
8:11 am60 °FRain. Fog.No wind93%29.85 "Hg2 mi
7:54 am59 °FLight rain. Fog.3 mph96%29.86 "Hg6 mi
7:15 am59 °FLight rain. Fog.6 mph96%29.89 "Hg4 mi
6:54 am59 °FFog.6 mph96%29.90 "Hg4 mi
Weather by CustomWeather, © 2019

See weather overview